Date String (YYYY-MM-DD hh:mm:ss) UTC,Instrument flags,absolute air pressure of the measurement (hPa),sample flow rate (lpm),inlet stack bypass flow (lpm),air temperature of the measurement (°C),ambient temperature measured by the external sensor (°C),aerosol sample conditioner tube jacket temperature (°C),OPC LED temperature (°C),internal box temperature (°C),relative humidity of the measurement (%),span deviation,mass concentration of particles derived from Lorenz-Mie calculation of OPC scattering (μg/m³),mass concentration of particles derived from Lorenz-Mie calculation of OPC scattering (μg/m³),mass concentration of particles derived from Lorenz-Mie calculation of OPC scattering (μg/m³)
DateTimeUTC,F1_M11,P_M11,Q1_M11,Q2_M11,T1_M11,T2_M11,T3_M11,T4_M11,T5_M11,U1_M11,ZSPAN_M11,X0_M11,X2_M11,X1_M11
2023-09-04 23:00:00,SystemResetWarning,0820.9,5.00,000.00,027.5,026.0,000.0,035.7,029.2,19.6,0000.0,0004.23,0001.32,0000.69
2023-09-04 23:01:00,SystemResetWarning,0821.0,5.00,000.00,027.5,026.3,000.0,035.7,029.3,19.4,0000.0,0004.25,0001.30,0000.69
2023-09-04 23:02:00,SystemResetWarning,0820.9,4.99,000.00,027.6,026.5,000.0,035.8,029.4,19.7,0000.0,0004.08,0001.30,0000.70
2023-09-04 23:03:00,SystemResetWarning,0820.9,4.99,000.00,027.6,026.0,000.0,035.8,029.2,19.2,0000.0,0004.12,0001.30,0000.70
2023-09-04 23:04:00,SystemResetWarning,0820.9,5.00,000.00,027.5,024.5,000.0,035.7,028.5,18.5,0000.0,0004.67,0001.30,0000.70
2023-09-04 23:05:00,SystemResetWarning,0820.8,5.01,000.00,027.4,023.9,000.0,035.7,028.5,17.5,0000.0,0004.52,0001.24,0000.71
2023-09-04 23:06:00,SystemResetWarning,0820.9,5.02,000.00,027.3,024.2,000.0,035.6,028.6,18.3,0000.0,0005.69,0001.23,0000.71
2023-09-04 23:07:00,SystemResetWarning,0820.8,4.99,000.00,027.3,024.6,000.0,035.6,028.7,18.9,0000.0,0006.09,0001.23,0000.71
2023-09-04 23:08:00,SystemResetWarning,0820.7,4.99,000.00,027.3,025.0,000.0,035.6,028.9,18.7,0000.0,0005.89,0001.18,0000.70
2023-09-04 23:09:00,SystemResetWarning,0820.9,5.01,000.00,027.4,025.4,000.0,035.7,029.0,18.9,0000.0,0006.49,0001.15,0000.70
2023-09-04 23:10:00,SystemResetWarning,0820.9,5.01,000.00,027.4,025.8,000.0,035.7,029.2,18.9,0000.0,0006.67,0001.11,0000.71
2023-09-04 23:11:00,SystemResetWarning,0821.0,4.99,000.00,027.5,026.1,000.0,035.7,029.3,18.7,0000.0,0006.67,0001.14,0000.72
2023-09-04 23:12:00,SystemResetWarning,0821.1,5.00,000.00,027.5,026.3,000.0,035.7,029.4,18.8,0000.0,0006.83,0001.18,0000.73
2023-09-04 23:13:00,SystemResetWarning,0821.1,5.01,000.00,027.6,026.5,000.0,035.8,029.4,18.7,0000.0,0007.42,0001.25,0000.73
2023-09-04 23:14:00,SystemResetWarning,0821.2,4.98,000.00,027.6,025.5,000.0,035.7,029.0,18.8,0000.0,0007.71,0001.28,0000.74
2023-09-04 23:15:00,SystemResetWarning,0821.1,5.01,000.00,027.4,024.1,000.0,035.7,028.4,19.2,0000.0,0007.79,0001.32,0000.75
2023-09-04 23:16:00,SystemResetWarning,0821.0,5.01,000.00,027.3,024.0,000.0,035.6,028.5,19.2,0000.0,0007.87,0001.34,0000.75
2023-09-04 23:17:00,SystemResetWarning,0821.0,4.99,000.00,027.3,024.3,000.0,035.6,028.6,19.2,0000.0,0007.99,0001.45,0000.75
2023-09-04 23:18:00,SystemResetWarning,0821.1,5.00,000.00,027.3,024.7,000.0,035.6,028.8,19.5,0000.0,0008.06,0001.56,0000.76
2023-09-04 23:19:00,SystemResetWarning,0821.0,5.00,000.00,027.3,025.1,000.0,035.6,028.9,19.9,0000.0,0008.70,0001.72,0000.79
2023-09-04 23:20:00,SystemResetWarning,0821.0,4.99,000.00,027.4,025.5,000.0,035.7,029.1,20.2,0000.0,0009.87,0001.83,0000.80
2023-09-04 23:21:00,SystemResetWarning,0821.0,5.00,000.00,027.4,025.9,000.0,035.7,029.2,20.4,0000.0,0010.41,0001.94,0000.82
2023-09-04 23:22:00,SystemResetWarning,0821.1,5.01,000.00,027.5,026.2,000.0,035.7,029.3,20.3,0000.0,0010.44,0002.05,0000.82
2023-09-04 23:23:00,SystemResetWarning,0821.0,5.01,000.00,027.6,026.4,000.0,035.7,029.4,20.3,0000.0,0010.66,0002.09,0000.83
2023-09-04 23:24:00,SystemResetWarning,0821.2,4.98,000.00,027.6,026.3,000.0,035.8,029.3,20.3,0000.0,0010.82,0002.11,0000.84
2023-09-04 23:25:00,SystemResetWarning,0821.2,5.00,000.00,027.5,024.9,000.0,035.7,028.7,20.2,0000.0,0011.08,0002.12,0000.84
2023-09-04 23:26:00,SystemResetWarning,0821.1,5.00,000.00,027.4,023.9,000.0,035.6,028.5,20.2,0000.0,0011.29,0002.19,0000.85
2023-09-04 23:27:00,SystemResetWarning,0821.2,5.01,000.00,027.3,024.0,000.0,035.6,028.5,20.1,0000.0,0012.31,0002.29,0000.87
2023-09-04 23:28:00,SystemResetWarning,0821.2,5.00,000.00,027.3,024.4,000.0,035.6,028.6,20.1,0000.0,0013.56,0002.35,0000.89
2023-09-04 23:29:00,SystemResetWarning,0821.3,5.00,000.00,027.3,024.8,000.0,035.6,028.8,20.1,0000.0,0013.89,0002.37,0000.90
2023-09-04 23:30:00,SystemResetWarning,0821.3,5.00,000.00,027.3,025.2,000.0,035.6,028.9,20.1,0000.0,0013.49,0002.33,0000.89
2023-09-04 23:31:00,SystemResetWarning,0821.1,4.99,000.00,027.4,025.6,000.0,035.7,029.1,19.5,0000.0,0012.30,0002.27,0000.89
2023-09-04 23:32:00,SystemResetWarning,0821.1,5.00,000.00,027.4,025.9,000.0,035.7,029.2,19.7,0000.0,0011.60,0002.30,0000.89
2023-09-04 23:33:00,SystemResetWarning,0821.1,5.01,000.00,027.5,026.2,000.0,035.7,029.3,19.6,0000.0,0011.99,0002.25,0000.89
2023-09-04 23:34:00,SystemResetWarning,0821.2,5.00,000.00,027.5,026.5,000.0,035.7,029.4,19.6,0000.0,0011.73,0002.24,0000.89
2023-09-04 23:35:00,SystemResetWarning,0821.0,4.98,000.00,027.6,026.5,000.0,035.8,029.4,19.9,0000.0,0011.97,0002.29,0000.90
2023-09-04 23:36:00,SystemResetWarning,0821.0,4.99,000.00,027.6,025.2,000.0,035.7,028.9,19.8,0000.0,0012.42,0002.35,0000.92
2023-09-04 23:37:00,SystemResetWarning,0821.0,5.01,000.00,027.4,023.9,000.0,035.7,028.4,20.0,0000.0,0011.96,0002.36,0000.91
2023-09-04 23:38:00,SystemResetWarning,0821.0,5.01,000.00,027.3,023.9,000.0,035.6,028.5,20.3,0000.0,0011.15,0002.34,0000.91
2023-09-04 23:39:00,SystemResetWarning,0820.9,4.99,000.00,027.3,024.2,000.0,035.6,028.6,20.1,0000.0,0009.83,0002.24,0000.90
2023-09-04 23:40:00,SystemResetWarning,0821.0,5.00,000.00,027.3,024.6,000.0,035.6,028.8,20.4,0000.0,0008.65,0002.16,0000.90
2023-09-04 23:41:00,SystemResetWarning,0821.0,5.00,000.00,027.3,025.1,000.0,035.6,028.9,20.4,0000.0,0008.65,0002.10,0000.90
2023-09-04 23:42:00,SystemResetWarning,0821.0,4.99,000.00,027.3,025.5,000.0,035.6,029.1,20.4,0000.0,0008.93,0002.11,0000.91
2023-09-04 23:43:00,SystemResetWarning,0821.2,5.00,000.00,027.4,025.8,000.0,035.7,029.2,20.4,0000.0,0009.13,0002.05,0000.90
2023-09-04 23:44:00,SystemResetWarning,0821.3,5.00,000.00,027.5,026.1,000.0,035.7,029.3,20.5,0000.0,0008.86,0002.02,0000.92
2023-09-04 23:45:00,SystemResetWarning,0821.3,5.00,000.00,027.5,026.4,000.0,035.7,029.4,20.4,0000.0,0009.32,0002.08,0000.93
2023-09-04 23:46:00,SystemResetWarning,0821.5,5.00,000.00,027.6,026.5,000.0,035.7,029.4,20.1,0000.0,0009.19,0002.10,0000.92
2023-09-04 23:47:00,SystemResetWarning,0821.9,5.00,000.00,027.6,025.6,000.0,035.7,029.1,20.3,0000.0,0008.37,0002.11,0000.91
2023-09-04 23:48:00,SystemResetWarning,0821.8,5.00,000.00,027.4,024.1,000.0,035.7,028.5,20.6,0000.0,0008.69,0002.02,0000.92
2023-09-04 23:49:00,SystemResetWarning,0821.7,5.02,000.00,027.3,023.8,000.0,035.6,028.5,20.5,0000.0,0009.38,0002.03,0000.92
2023-09-04 23:50:00,SystemResetWarning,0821.6,4.99,000.00,027.3,024.2,000.0,035.6,028.6,20.7,0000.0,0009.83,0002.01,0000.91
2023-09-04 23:51:00,SystemResetWarning,0821.8,5.00,000.00,027.3,024.6,000.0,035.6,028.7,20.6,0000.0,0009.90,0001.97,0000.92
2023-09-04 23:52:00,SystemResetWarning,0821.9,5.01,000.00,027.3,025.0,000.0,035.6,028.9,20.6,0000.0,0009.73,0001.96,0000.93
2023-09-04 23:53:00,SystemResetWarning,0821.9,5.01,000.00,027.3,025.4,000.0,035.6,029.0,20.3,0000.0,0009.53,0002.01,0000.94
2023-09-04 23:54:00,SystemResetWarning,0822.1,5.00,000.00,027.4,025.8,000.0,035.7,029.1,19.5,0000.0,0009.16,0001.96,0000.95
2023-09-04 23:55:00,SystemResetWarning,0822.1,5.00,000.00,027.4,026.1,000.0,035.7,029.2,20.1,0000.0,0009.11,0001.98,0000.95
2023-09-04 23:56:00,SystemResetWarning,0822.2,5.00,000.00,027.5,026.4,000.0,035.7,029.3,20.4,0000.0,0009.41,0001.99,0000.95
2023-09-04 23:57:00,SystemResetWarning,0822.4,5.00,000.00,027.6,026.6,000.0,035.7,029.4,20.1,0000.0,0009.51,0001.93,0000.95
2023-09-04 23:58:00,SystemResetWarning,0822.4,5.00,000.00,027.6,026.8,000.0,035.8,029.5,20.2,0000.0,0010.48,0001.91,0000.95
2023-09-04 23:59:00,SystemResetWarning,0822.4,4.98,000.00,027.7,026.1,000.0,035.8,029.3,20.4,0000.0,0010.02,0001.96,0000.95
